STARLINK-32781, 62848

Orbit data source: Space-Track

STARLINK-32781, 62848 is a payload satellite owned by SpaceX/Seattle (US) in LEO that was launched on Mon, 27 Jan 2025 UTC via an FALCON 9 launch vehicle from the Air Force Eastern Test Range (AFETR). Payload-class satellites include a variety of spacecraft equipped with specific instruments for various scientific and technological missions. These include communications satellites like Starlink; space stations such as the ISS; scientific satellites like the Hubble; Earth observation satellites from companies like Planet Labs, Umbra, and HawkEye 360; GPS; miniature CubeSats for education and research; and military/defense satellites.

Loading next visibility...
Identifier
62848, 2025-019V
Orbit
LEO
Country
Flag of USUS
Related business
Manufacturer
SpaceX/Seattle
Mission
Operational Commercial Communications
Bus & Motor
STARLINK V2M, Unknown motor
Mass
730 kg wet, ~700 kg dry
Launch date (UTC)
2025-01-27 (2 years ago)
Launch vehicle
FALCON 9
Launch site
Air Force Eastern Test Range (AFETR)
Object type
Payload
Rocket body
Debris
Shape & HBR
Box + 2 Pan, 17.7 m
Radar Cross Section
33.884 m², Large (>1 m²)

Expand to show TLE details & history
Last TLE update: 9 hours ago

TLE from 9 hours ago
0 STARLINK-32781
1 62848U 25019V   26247.80225003  .00010855  00000-0  40346-3 0  9995
2 62848  43.0026 157.4723 0001476 267.7558  92.3125 15.27574830 89643
Epoch: 2026-09-04T19:15Z
TLE epoch observation values (Epoch: 2026-09-04T19:15:14.402Z)
Latitude
-0°
Longitude
-115.25856°
Altitude
482.881 km
Speed
7.626 km/s
True Right ascension
10h 29m 53s
True Declination
0° 00' 00"
Sunlit
Object was in daylight at epoch
Visualization orbit readout
Latitude
Unknown
Longitude
Unknown
Altitude
Unknown
Speed
Unknown
Apparent Right ascension
Unknown
Apparent Declination
Unknown
Sunlit
N/A
Visualization observer readout
Local Sidereal Time
19:48:01
Azimuth
Unknown
Elevation
Unknown
Doppler factor
Unknown
Orbital elements
Apogee altitude
486.022 km
Perigee altitude
483.996 km
Semi-major axis
6,863.146 km
Eccentricity
0.00015
Inclination
43.0026°
RAAN
157.4723°
Arg. of periapsis
267.7558°
True anomaly
92.3294°
Mean anomaly
92.3125°
Eccentric anomaly
92.32095°
Mean motion
3.81732 °/min
Orbital period
94.31 mins
BSTAR
0.00040346
Loading maneuver chart data...
Computing Atmospheric mass density...
Loading historical data...
Loading historical data...
Loading historical data...
Loading historical data...
Loading historical data...
Loading historical data...
Loading historical data...

Documentation

Showing up to 5 results
|